User: anonymous   Login
Location: Unspecified
(0.0000°N, 0.0000°E)
Time: 09:50:47
(UTC+02:00)
Language:

CZ-4B R/B - Orbit

View from above orbital plane
View from above orbital plane
View from above satellite
View from above satellite

Ground track
Ground track

The orbit data is extracted from the following two-line orbital elements,

1 33410U 08053C   15240.94762778  .00001259  00000-0  99921-4 0  9990
2 33410 097.6393 210.8552 0122328 239.4017 119.5093 14.96709369372269
Epoch (UTC): 28 August 2015 22:44:35
Eccentricity: 0.0122328
inclination: 97.6393°
perigee height: 492 km
apogee height: 662 km
right ascension of ascending node: 210.8552°
argument of perigee: 239.4017°
revolutions per day: 14.96709369
mean anomaly at epoch: 119.5093°
orbit number at epoch: 37226

The dashed part of the orbit path shows where the satellite is in the earth's shadow,  

DLR